START_TIME,STEP,MOV.,P11,t_acc.,P23,t_acc.,P27,t_acc.,A4,t_acc.
1989-08-27T06:00:23.680 ,3,0,0.,4.8,0.,4.8,0.,4.8,0.,4.8
1989-08-27T06:00:28.480 ,3,0,0.,4.8,0.,4.8,0.,4.8,0.,4.8
1989-08-27T06:00:33.280 ,3,0,0.,4.8,0.,4.8,0.,4.8,0.,4.8
1989-08-27T06:00:38.080 ,3,0,0.,4.8,0.,4.8,0.,4.8,0.,4.8
1989-08-27T06:00:42.880 ,3,0,0.,4.8,0.,4.8,0.,4.8,0.,4.8
1989-08-27T06:00:47.680 ,4,0,0.,4.8,0.,4.8,0.,4.8,0.,4.8
1989-08-27T06:00:52.480 ,4,0,0.,4.8,0.,4.8,0.,4.8,0.,4.8
1989-08-27T06:00:57.280 ,4,0,0.,4.8,0.,4.8,0.,4.8,0.,4.8
1989-08-27T06:01:02.080 ,4,0,0.,4.8,0.,4.8,0.,4.8,0.,4.8
1989-08-27T06:01:06.880 ,4,0,0.,4.8,0.,4.8,0.,4.8,0.,4.8
1989-08-27T06:01:11.680 ,4,0,0.,4.8,0.,4.8,0.,4.8,0.,4.8
1989-08-27T06:01:16.480 ,4,0,0.,4.8,0.,4.8,0.,4.8,0.,4.8
1989-08-27T06:01:21.280 ,4,0,0.,4.8,0.,4.8,0.,4.8,0.,4.8
1989-08-27T06:01:26.080 ,4,0,0.,4.8,0.,4.8,0.,4.8,0.,4.8
1989-08-27T06:01:30.880 ,4,0,0.,4.8,0.,4.8,0.,4.8,0.,4.8
1989-08-27T06:01:35.680 ,5,0,0.,4.8,0.,4.8,0.,4.8,0.,4.8
1989-08-27T06:01:40.480 ,5,0,0.,4.8,0.,4.8,0.,4.8,0.,4.8
1989-08-27T06:01:45.280 ,5,0,0.,4.8,0.,4.8,0.,4.8,0.,4.8
1989-08-27T06:01:50.080 ,5,0,0.,4.8,0.,4.8,0.,4.8,0.,4.8
1989-08-27T06:01:54.880 ,5,0,0.,4.8,0.,4.8,0.,4.8,0.,4.8
1989-08-27T06:01:59.680 ,5,0,0.,4.8,0.,4.8,0.,4.8,0.,4.8
1989-08-27T06:02:04.480 ,5,0,0.,4.8,0.,4.8,0.,4.8,0.,4.8
1989-08-27T06:02:09.280 ,5,0,0.,4.8,0.,4.8,0.,4.8,0.,4.8
1989-08-27T06:02:14.080 ,5,0,0.,4.8,0.,4.8,0.,4.8,0.,4.8
1989-08-27T06:02:18.880 ,5,0,0.,4.8,0.,4.8,0.,4.8,0.,4.8
1989-08-27T06:02:23.680 ,6,0,0.,4.8,0.,4.8,0.,4.8,0.,4.8
1989-08-27T06:02:28.480 ,6,0,0.,4.8,0.,4.8,0.,4.8,0.,4.8
1989-08-27T06:02:33.280 ,6,0,0.,4.8,0.,4.8,0.,4.8,0.,4.8
1989-08-27T06:02:38.080 ,6,0,0.,4.8,0.,4.8,0.,4.8,0.,4.8
1989-08-27T06:02:42.880 ,6,0,0.,4.8,0.,4.8,0.,4.8,0.,4.8
1989-08-27T06:02:47.680 ,6,0,0.,4.8,0.,4.8,0.,4.8,0.,4.8
1989-08-27T06:02:52.480 ,6,0,0.,4.8,0.,4.8,0.,4.8,0.,4.8
1989-08-27T06:02:57.280 ,6,0,0.,4.8,0.,4.8,0.,4.8,0.,4.8
1989-08-27T06:03:02.080 ,6,0,0.,4.8,0.,4.8,0.,4.8,0.,4.8
1989-08-27T06:03:06.880 ,6,0,0.,4.8,0.,4.8,0.,4.8,0.,4.8
1989-08-27T06:03:11.680 ,7,0,0.,4.8,0.,4.8,0.,4.8,0.,4.8
1989-08-27T06:03:16.480 ,7,0,0.,4.8,0.,4.8,0.,4.8,0.,4.8
1989-08-27T06:03:21.280 ,7,0,0.,4.8,0.,4.8,0.,4.8,0.,4.8
1989-08-27T06:03:26.080 ,7,0,0.,4.8,0.,4.8,0.,4.8,0.,4.8
1989-08-27T06:03:30.880 ,7,0,0.,4.8,0.,4.8,0.,4.8,0.,4.8
1989-08-27T06:03:35.680 ,7,0,0.,4.8,0.,4.8,0.,4.8,0.,4.8
1989-08-27T06:03:40.480 ,7,0,0.,4.8,0.,4.8,0.,4.8,0.,4.8
1989-08-27T06:03:45.280 ,7,0,0.,4.8,0.,4.8,0.,4.8,0.,4.8
1989-08-27T06:03:50.080 ,7,0,0.,4.8,0.,4.8,0.,4.8,0.,4.8
1989-08-27T06:03:54.880 ,7,0,0.,4.8,0.,4.8,0.,4.8,0.,4.8
1989-08-27T06:03:59.680 ,7,0,0.,4.8,0.,4.8,0.,4.8,0.,4.8
1989-08-27T06:04:04.480 ,7,0,0.,4.8,0.,4.8,0.,4.8,0.,4.8
1989-08-27T06:04:09.280 ,7,0,0.,4.8,0.,4.8,0.,4.8,0.,4.8
1989-08-27T06:04:14.080 ,7,0,0.,4.8,0.,4.8,0.,4.8,0.,4.8
1989-08-27T06:04:18.880 ,7,0,0.,4.8,0.,4.8,0.,4.8,0.,4.8
1989-08-27T06:04:23.680 ,7,0,0.,4.8,0.,4.8,0.,4.8,0.,4.8
1989-08-27T06:04:28.480 ,7,0,0.,4.8,0.,4.8,0.,4.8,0.,4.8
1989-08-27T06:04:33.280 ,7,0,0.,4.8,0.,4.8,0.,4.8,0.,4.8
1989-08-27T06:04:38.080 ,7,0,0.,4.8,0.,4.8,0.,4.8,0.,4.8
1989-08-27T06:04:42.880 ,7,0,0.,4.8,0.,4.8,0.,4.8,0.,4.8
1989-08-27T06:04:47.680 ,6,0,0.,4.8,0.,4.8,0.,4.8,0.,4.8
1989-08-27T06:04:52.480 ,6,0,0.,4.8,0.,4.8,0.,4.8,0.,4.8
1989-08-27T06:04:57.280 ,6,0,0.,4.8,0.,4.8,0.,4.8,0.,4.8
1989-08-27T06:05:02.080 ,6,0,0.,4.8,0.,4.8,0.,4.8,0.,4.8
1989-08-27T06:05:06.880 ,6,0,0.,4.8,0.,4.8,0.,4.8,0.,4.8
1989-08-27T06:05:11.680 ,6,0,0.,4.8,0.,4.8,0.,4.8,0.,4.8
1989-08-27T06:05:16.480 ,6,0,0.,4.8,0.,4.8,0.,4.8,0.,4.8
1989-08-27T06:05:21.280 ,6,0,0.,4.8,0.,4.8,0.,4.8,0.,4.8
1989-08-27T06:05:26.080 ,6,0,0.,4.8,0.,4.8,0.,4.8,0.,4.8
1989-08-27T06:05:30.880 ,6,0,0.,4.8,0.,4.8,0.,4.8,1.,4.8
1989-08-27T06:05:35.680 ,5,0,0.,4.8,0.,4.8,0.,4.8,0.,4.8
1989-08-27T06:05:40.480 ,5,0,0.,4.8,0.,4.8,0.,4.8,0.,4.8
1989-08-27T06:05:45.280 ,5,0,0.,4.8,0.,4.8,0.,4.8,0.,4.8
1989-08-27T06:05:50.080 ,5,0,0.,4.8,0.,4.8,0.,4.8,0.,4.8
1989-08-27T06:05:54.880 ,5,0,0.,4.8,0.,4.8,0.,4.8,0.,4.8
1989-08-27T06:05:59.680 ,5,0,0.,4.8,0.,4.8,0.,4.8,0.,4.8
1989-08-27T06:06:04.480 ,5,0,0.,4.8,0.,4.8,0.,4.8,0.,4.8
1989-08-27T06:06:09.280 ,5,0,0.,4.8,0.,4.8,0.,4.8,0.,4.8
1989-08-27T06:06:14.080 ,5,0,0.,4.8,0.,4.8,0.,4.8,0.,4.8
1989-08-27T06:06:18.880 ,5,0,0.,4.8,0.,4.8,0.,4.8,0.,4.8
1989-08-27T06:06:23.680 ,4,0,0.,4.8,0.,4.8,0.,4.8,0.,4.8
1989-08-27T06:06:28.480 ,4,0,0.,4.8,0.,4.8,0.,4.8,0.,4.8
1989-08-27T06:06:33.280 ,4,0,0.,4.8,0.,4.8,0.,4.8,0.,4.8
1989-08-27T06:06:38.080 ,4,0,0.,4.8,0.,4.8,0.,4.8,0.,4.8
1989-08-27T06:06:42.880 ,4,0,0.,4.8,0.,4.8,0.,4.8,0.,4.8
1989-08-27T06:06:47.680 ,4,0,0.,4.8,0.,4.8,0.,4.8,0.,4.8
1989-08-27T06:06:52.480 ,4,0,0.,4.8,0.,4.8,0.,4.8,0.,4.8
1989-08-27T06:06:57.280 ,4,0,0.,4.8,0.,4.8,0.,4.8,0.,4.8
1989-08-27T06:07:02.080 ,4,0,0.,4.8,0.,4.8,0.,4.8,0.,4.8
1989-08-27T06:07:06.880 ,4,0,0.,4.8,0.,4.8,0.,4.8,0.,4.8
1989-08-27T06:07:11.680 ,3,0,0.,4.8,0.,4.8,0.,4.8,0.,4.8
1989-08-27T06:07:16.480 ,3,0,0.,4.8,0.,4.8,0.,4.8,0.,4.8
1989-08-27T06:07:21.280 ,3,0,0.,4.8,0.,4.8,0.,4.8,0.,4.8
1989-08-27T06:07:26.080 ,3,0,0.,4.8,0.,4.8,0.,4.8,0.,4.8
1989-08-27T06:07:30.880 ,3,0,0.,4.8,0.,4.8,0.,4.8,0.,4.8
1989-08-27T06:07:35.680 ,3,0,0.,4.8,0.,4.8,0.,4.8,0.,4.8
1989-08-27T06:07:40.480 ,3,0,0.,4.8,0.,4.8,0.,4.8,0.,4.8
1989-08-27T06:07:45.280 ,3,0,0.,4.8,0.,4.8,0.,4.8,0.,4.8
1989-08-27T06:07:50.080 ,3,0,0.,4.8,0.,4.8,0.,4.8,0.,4.8
1989-08-27T06:07:54.880 ,3,0,0.,4.8,0.,4.8,0.,4.8,0.,4.8
1989-08-27T06:07:59.680 ,2,0,0.,4.8,0.,4.8,0.,4.8,0.,4.8
1989-08-27T06:08:04.480 ,2,0,0.,4.8,0.,4.8,0.,4.8,0.,4.8
1989-08-27T06:08:09.280 ,2,0,0.,4.8,0.,4.8,0.,4.8,0.,4.8
1989-08-27T06:08:14.080 ,2,0,0.,4.8,0.,4.8,0.,4.8,0.,4.8
1989-08-27T06:08:18.880 ,2,0,0.,4.8,0.,4.8,0.,4.8,0.,4.8
1989-08-27T06:08:23.680 ,2,0,0.,4.8,0.,4.8,0.,4.8,0.,4.8
1989-08-27T06:08:28.480 ,2,0,0.,4.8,0.,4.8,0.,4.8,0.,4.8
1989-08-27T06:08:33.280 ,2,0,0.,4.8,0.,4.8,0.,4.8,0.,4.8
1989-08-27T06:08:38.080 ,2,0,0.,4.8,0.,4.8,0.,4.8,0.,4.8
1989-08-27T06:08:42.880 ,2,0,0.,4.8,0.,4.8,0.,4.8,0.,4.8
1989-08-27T06:08:47.680 ,1,0,0.,4.8,0.,4.8,0.,4.8,0.,4.8
1989-08-27T06:08:52.480 ,1,0,0.,4.8,0.,4.8,0.,4.8,0.,4.8
1989-08-27T06:08:57.280 ,1,0,0.,4.8,0.,4.8,0.,4.8,0.,4.8
1989-08-27T06:09:02.080 ,1,0,0.,4.8,0.,4.8,0.,4.8,0.,4.8
1989-08-27T06:09:06.880 ,1,0,0.,4.8,0.,4.8,0.,4.8,0.,4.8
1989-08-27T06:09:11.680 ,1,0,0.,4.8,0.,4.8,0.,4.8,0.,4.8
1989-08-27T06:09:16.480 ,1,0,0.,4.8,0.,4.8,0.,4.8,0.,4.8
1989-08-27T06:09:21.280 ,1,0,0.,4.8,0.,4.8,0.,4.8,0.,4.8
1989-08-27T06:09:26.080 ,1,0,0.,4.8,0.,4.8,0.,4.8,0.,4.8
1989-08-27T06:09:30.880 ,1,0,0.,4.8,0.,4.8,0.,4.8,0.,4.8
1989-08-27T06:09:35.680 ,0,0,0.,4.8,0.,4.8,0.,4.8,0.,4.8
1989-08-27T06:09:40.480 ,0,0,0.,4.8,0.,4.8,0.,4.8,0.,4.8
1989-08-27T06:09:45.280 ,0,0,0.,4.8,0.,4.8,0.,4.8,0.,4.8
1989-08-27T06:09:50.080 ,0,0,0.,4.8,0.,4.8,0.,4.8,0.,4.8
1989-08-27T06:09:54.880 ,0,0,0.,4.8,0.,4.8,0.,4.8,0.,4.8
1989-08-27T06:09:59.680 ,0,0,0.,4.8,0.,4.8,0.,4.8,0.,4.8
1989-08-27T06:10:04.480 ,0,0,0.,4.8,0.,4.8,0.,4.8,0.,4.8
1989-08-27T06:10:09.280 ,0,0,0.,4.8,0.,4.8,0.,4.8,0.,4.8
1989-08-27T06:10:14.080 ,0,0,0.,4.8,0.,4.8,0.,4.8,0.,4.8
1989-08-27T06:10:18.880 ,0,0,0.,4.8,0.,4.8,0.,4.8,0.,4.8
1989-08-27T06:10:23.680 ,0,0,0.,4.8,0.,4.8,0.,4.8,0.,4.8
1989-08-27T06:10:28.480 ,0,0,0.,4.8,0.,4.8,0.,4.8,0.,4.8
1989-08-27T06:10:33.280 ,0,0,0.,4.8,0.,4.8,0.,4.8,0.,4.8
1989-08-27T06:10:38.080 ,0,0,0.,4.8,0.,4.8,0.,4.8,0.,4.8
1989-08-27T06:10:42.880 ,0,0,0.,4.8,0.,4.8,0.,4.8,0.,4.8
1989-08-27T06:10:47.680 ,0,0,0.,4.8,0.,4.8,0.,4.8,0.,4.8
1989-08-27T06:10:52.480 ,0,0,0.,4.8,0.,4.8,0.,4.8,0.,4.8
1989-08-27T06:10:57.280 ,0,0,0.,4.8,0.,4.8,0.,4.8,0.,4.8
1989-08-27T06:11:02.080 ,0,0,0.,4.8,0.,4.8,0.,4.8,0.,4.8
1989-08-27T06:11:06.880 ,0,0,0.,4.8,0.,4.8,0.,4.8,0.,4.8
1989-08-27T06:11:11.680 ,1,0,0.,4.8,0.,4.8,0.,4.8,0.,4.8
1989-08-27T06:11:16.480 ,1,0,0.,4.8,0.,4.8,0.,4.8,0.,4.8
1989-08-27T06:11:21.280 ,1,0,0.,4.8,0.,4.8,0.,4.8,0.,4.8
1989-08-27T06:11:26.080 ,1,0,0.,4.8,0.,4.8,0.,4.8,0.,4.8
1989-08-27T06:11:30.880 ,1,0,0.,4.8,0.,4.8,0.,4.8,0.,4.8
1989-08-27T06:11:35.680 ,1,0,0.,4.8,0.,4.8,0.,4.8,0.,4.8
1989-08-27T06:11:40.480 ,1,0,0.,4.8,0.,4.8,0.,4.8,0.,4.8
1989-08-27T06:11:45.280 ,1,0,0.,4.8,0.,4.8,0.,4.8,0.,4.8
1989-08-27T06:11:50.080 ,1,0,0.,4.8,0.,4.8,0.,4.8,0.,4.8
1989-08-27T06:11:54.880 ,1,0,0.,4.8,0.,4.8,0.,4.8,0.,4.8
1989-08-27T06:11:59.680 ,2,0,0.,4.8,0.,4.8,0.,4.8,0.,4.8
1989-08-27T06:12:04.480 ,2,0,0.,4.8,0.,4.8,0.,4.8,0.,4.8
1989-08-27T06:12:09.280 ,2,0,0.,4.8,0.,4.8,0.,4.8,0.,4.8
1989-08-27T06:12:14.080 ,2,0,0.,4.8,0.,4.8,0.,4.8,0.,4.8
1989-08-27T06:12:18.880 ,2,0,0.,4.8,0.,4.8,0.,4.8,0.,4.8
1989-08-27T06:12:23.680 ,2,0,0.,4.8,0.,4.8,0.,4.8,0.,4.8
1989-08-27T06:12:28.480 ,2,0,0.,4.8,0.,4.8,0.,4.8,0.,4.8
1989-08-27T06:12:33.280 ,2,0,0.,4.8,0.,4.8,0.,4.8,0.,4.8
1989-08-27T06:12:38.080 ,2,0,0.,4.8,0.,4.8,0.,4.8,0.,4.8
1989-08-27T06:12:42.880 ,2,0,0.,4.8,0.,4.8,0.,4.8,0.,4.8
1989-08-27T06:12:47.680 ,3,0,0.,4.8,0.,4.8,0.,4.8,0.,4.8
1989-08-27T06:12:52.480 ,3,0,0.,4.8,0.,4.8,0.,4.8,1.,4.8
1989-08-27T06:12:57.280 ,3,0,0.,4.8,0.,4.8,0.,4.8,0.,4.8
1989-08-27T06:13:02.080 ,3,0,0.,4.8,0.,4.8,0.,4.8,0.,4.8
1989-08-27T06:13:06.880 ,3,0,0.,4.8,0.,4.8,0.,4.8,0.,4.8
1989-08-27T06:13:11.680 ,3,0,0.,4.8,0.,4.8,0.,4.8,0.,4.8
1989-08-27T06:13:16.480 ,3,0,0.,4.8,0.,4.8,0.,4.8,0.,4.8
1989-08-27T06:13:21.280 ,3,0,0.,4.8,0.,4.8,0.,4.8,0.,4.8
1989-08-27T06:13:26.080 ,3,0,0.,4.8,0.,4.8,0.,4.8,0.,4.8
1989-08-27T06:13:30.880 ,3,0,0.,4.8,0.,4.8,0.,4.8,0.,4.8
1989-08-27T06:13:35.680 ,4,0,0.,4.8,0.,4.8,0.,4.8,0.,4.8
1989-08-27T06:13:40.480 ,4,0,0.,4.8,0.,4.8,0.,4.8,0.,4.8
1989-08-27T06:13:45.280 ,4,0,0.,4.8,0.,4.8,0.,4.8,0.,4.8
1989-08-27T06:13:50.080 ,4,0,0.,4.8,0.,4.8,0.,4.8,0.,4.8
1989-08-27T06:13:54.880 ,4,0,0.,4.8,0.,4.8,0.,4.8,0.,4.8
1989-08-27T06:13:59.680 ,4,0,0.,4.8,0.,4.8,0.,4.8,0.,4.8
1989-08-27T06:14:04.480 ,4,0,0.,4.8,0.,4.8,0.,4.8,0.,4.8
1989-08-27T06:14:09.280 ,4,0,0.,4.8,0.,4.8,0.,4.8,0.,4.8
1989-08-27T06:14:14.080 ,4,0,0.,4.8,0.,4.8,0.,4.8,0.,4.8
1989-08-27T06:14:18.880 ,4,0,0.,4.8,0.,4.8,0.,4.8,0.,4.8
1989-08-27T06:14:23.680 ,5,0,0.,4.8,0.,4.8,0.,4.8,0.,4.8
1989-08-27T06:14:28.480 ,5,0,0.,4.8,0.,4.8,0.,4.8,0.,4.8
1989-08-27T06:14:33.280 ,5,0,0.,4.8,0.,4.8,0.,4.8,0.,4.8
1989-08-27T06:14:38.080 ,5,0,0.,4.8,0.,4.8,0.,4.8,0.,4.8
1989-08-27T06:14:42.880 ,5,0,0.,4.8,0.,4.8,0.,4.8,0.,4.8
1989-08-27T06:14:47.680 ,5,0,0.,4.8,0.,4.8,0.,4.8,0.,4.8
1989-08-27T06:14:52.480 ,5,0,0.,4.8,0.,4.8,0.,4.8,0.,4.8
1989-08-27T06:14:57.280 ,5,0,0.,4.8,0.,4.8,0.,4.8,0.,4.8
1989-08-27T06:15:02.080 ,5,0,0.,4.8,0.,4.8,0.,4.8,0.,4.8
1989-08-27T06:15:06.880 ,5,0,0.,4.8,0.,4.8,0.,4.8,0.,4.8
1989-08-27T06:15:11.680 ,6,0,0.,4.8,0.,4.8,0.,4.8,0.,4.8
1989-08-27T06:15:16.480 ,6,0,0.,4.8,0.,4.8,0.,4.8,0.,4.8
1989-08-27T06:15:21.280 ,6,0,0.,4.8,0.,4.8,0.,4.8,0.,4.8
1989-08-27T06:15:26.080 ,6,0,0.,4.8,0.,4.8,0.,4.8,0.,4.8
1989-08-27T06:15:30.880 ,6,0,0.,4.8,0.,4.8,0.,4.8,0.,4.8
1989-08-27T06:15:35.680 ,6,0,0.,4.8,0.,4.8,0.,4.8,0.,4.8
1989-08-27T06:15:40.480 ,6,0,0.,4.8,0.,4.8,0.,4.8,0.,4.8
1989-08-27T06:15:45.280 ,6,0,0.,4.8,0.,4.8,0.,4.8,0.,4.8
1989-08-27T06:15:50.080 ,6,0,0.,4.8,0.,4.8,0.,4.8,0.,4.8
1989-08-27T06:15:54.880 ,6,0,0.,4.8,0.,4.8,0.,4.8,0.,4.8
1989-08-27T06:15:59.680 ,7,0,0.,4.8,0.,4.8,0.,4.8,0.,4.8
1989-08-27T06:16:04.480 ,7,0,0.,4.8,0.,4.8,0.,4.8,0.,4.8
1989-08-27T06:16:09.280 ,7,0,0.,4.8,0.,4.8,0.,4.8,0.,4.8
1989-08-27T06:16:14.080 ,7,0,0.,4.8,0.,4.8,0.,4.8,0.,4.8
1989-08-27T06:16:18.880 ,7,0,0.,4.8,0.,4.8,0.,4.8,1.,4.8
1989-08-27T06:16:23.680 ,7,0,0.,4.8,0.,4.8,0.,4.8,0.,4.8
1989-08-27T06:16:28.480 ,7,0,0.,4.8,0.,4.8,0.,4.8,0.,4.8
1989-08-27T06:16:33.280 ,7,0,0.,4.8,0.,4.8,0.,4.8,0.,4.8
1989-08-27T06:16:38.080 ,7,0,0.,4.8,0.,4.8,0.,4.8,0.,4.8
1989-08-27T06:16:42.880 ,7,0,0.,4.8,0.,4.8,0.,4.8,0.,4.8
1989-08-27T06:16:47.680 ,7,0,0.,4.8,0.,4.8,0.,4.8,0.,4.8
1989-08-27T06:16:52.480 ,7,0,0.,4.8,0.,4.8,0.,4.8,0.,4.8
1989-08-27T06:16:57.280 ,7,0,0.,4.8,0.,4.8,0.,4.8,0.,4.8
1989-08-27T06:17:02.080 ,7,0,0.,4.8,0.,4.8,0.,4.8,0.,4.8
1989-08-27T06:17:06.880 ,7,0,0.,4.8,0.,4.8,0.,4.8,0.,4.8
1989-08-27T06:17:11.680 ,7,0,0.,4.8,0.,4.8,0.,4.8,0.,4.8
1989-08-27T06:17:16.480 ,7,0,0.,4.8,0.,4.8,0.,4.8,0.,4.8
1989-08-27T06:17:21.280 ,7,0,0.,4.8,0.,4.8,0.,4.8,0.,4.8
1989-08-27T06:17:26.080 ,7,0,0.,4.8,0.,4.8,0.,4.8,0.,4.8
1989-08-27T06:17:30.880 ,7,0,0.,4.8,0.,4.8,0.,4.8,0.,4.8
1989-08-27T06:17:35.680 ,6,0,0.,4.8,0.,4.8,0.,4.8,0.,4.8
1989-08-27T06:17:40.480 ,6,0,0.,4.8,0.,4.8,0.,4.8,0.,4.8
1989-08-27T06:17:45.280 ,6,0,0.,4.8,0.,4.8,0.,4.8,0.,4.8
1989-08-27T06:17:50.080 ,6,0,0.,4.8,0.,4.8,0.,4.8,0.,4.8
1989-08-27T06:17:54.880 ,6,0,0.,4.8,0.,4.8,0.,4.8,0.,4.8
1989-08-27T06:17:59.680 ,6,0,0.,4.8,0.,4.8,0.,4.8,0.,4.8
1989-08-27T06:18:04.480 ,6,0,0.,4.8,0.,4.8,0.,4.8,0.,4.8
1989-08-27T06:18:09.280 ,6,0,0.,4.8,0.,4.8,0.,4.8,0.,4.8
1989-08-27T06:18:14.080 ,6,0,0.,4.8,0.,4.8,0.,4.8,0.,4.8
1989-08-27T06:18:18.880 ,6,0,0.,4.8,0.,4.8,0.,4.8,0.,4.8
1989-08-27T06:18:23.680 ,5,0,0.,4.8,0.,4.8,0.,4.8,0.,4.8
1989-08-27T06:18:28.480 ,5,0,0.,4.8,0.,4.8,0.,4.8,0.,4.8
1989-08-27T06:18:33.280 ,5,0,0.,4.8,0.,4.8,0.,4.8,0.,4.8
1989-08-27T06:18:38.080 ,5,0,0.,4.8,0.,4.8,0.,4.8,0.,4.8
1989-08-27T06:18:42.880 ,5,0,0.,4.8,0.,4.8,0.,4.8,0.,4.8
1989-08-27T06:18:47.680 ,5,0,0.,4.8,0.,4.8,0.,4.8,0.,4.8
1989-08-27T06:18:52.480 ,5,0,0.,4.8,0.,4.8,0.,4.8,0.,4.8
1989-08-27T06:18:57.280 ,5,0,0.,4.8,0.,4.8,0.,4.8,0.,4.8
1989-08-27T06:19:02.080 ,5,0,0.,4.8,0.,4.8,0.,4.8,0.,4.8
1989-08-27T06:19:06.880 ,5,0,0.,4.8,0.,4.8,0.,4.8,0.,4.8
1989-08-27T06:19:11.680 ,4,0,0.,4.8,0.,4.8,0.,4.8,0.,4.8
1989-08-27T06:19:16.480 ,4,0,0.,4.8,0.,4.8,0.,4.8,0.,4.8
1989-08-27T06:19:21.280 ,4,0,0.,4.8,0.,4.8,0.,4.8,0.,4.8
1989-08-27T06:19:26.080 ,4,0,0.,4.8,0.,4.8,0.,4.8,0.,4.8
1989-08-27T06:19:30.880 ,4,0,0.,4.8,0.,4.8,0.,4.8,0.,4.8
1989-08-27T06:19:35.680 ,4,0,0.,4.8,0.,4.8,0.,4.8,0.,4.8
1989-08-27T06:19:40.480 ,4,0,0.,4.8,0.,4.8,0.,4.8,0.,4.8
1989-08-27T06:19:45.280 ,4,0,0.,4.8,0.,4.8,0.,4.8,0.,4.8
1989-08-27T06:19:50.080 ,4,0,0.,4.8,0.,4.8,0.,4.8,0.,4.8
1989-08-27T06:19:54.880 ,4,0,0.,4.8,0.,4.8,0.,4.8,0.,4.8
1989-08-27T06:19:59.680 ,3,0,0.,4.8,0.,4.8,0.,4.8,0.,4.8
1989-08-27T06:20:04.480 ,3,0,0.,4.8,0.,4.8,0.,4.8,0.,4.8
1989-08-27T06:20:09.280 ,3,0,0.,4.8,0.,4.8,0.,4.8,0.,4.8
1989-08-27T06:20:14.080 ,3,0,0.,4.8,0.,4.8,0.,4.8,0.,4.8
1989-08-27T06:20:18.880 ,3,0,0.,4.8,0.,4.8,0.,4.8,0.,4.8
1989-08-27T06:20:23.680 ,3,0,0.,4.8,0.,4.8,0.,4.8,0.,4.8
1989-08-27T06:20:28.480 ,3,0,0.,4.8,0.,4.8,0.,4.8,1.,4.8
1989-08-27T06:20:33.280 ,3,0,0.,4.8,0.,4.8,0.,4.8,0.,4.8
1989-08-27T06:20:38.080 ,3,0,0.,4.8,0.,4.8,0.,4.8,0.,4.8
1989-08-27T06:20:42.880 ,3,0,0.,4.8,0.,4.8,0.,4.8,0.,4.8
1989-08-27T06:20:47.680 ,2,0,0.,4.8,0.,4.8,0.,4.8,0.,4.8
1989-08-27T06:20:52.480 ,2,0,0.,4.8,0.,4.8,0.,4.8,0.,4.8
1989-08-27T06:20:57.280 ,2,0,0.,4.8,0.,4.8,0.,4.8,0.,4.8
1989-08-27T06:21:02.080 ,2,0,0.,4.8,0.,4.8,0.,4.8,0.,4.8
1989-08-27T06:21:06.880 ,2,0,0.,4.8,0.,4.8,0.,4.8,0.,4.8
1989-08-27T06:21:11.680 ,2,0,0.,4.8,0.,4.8,0.,4.8,0.,4.8
1989-08-27T06:21:16.480 ,2,0,0.,4.8,0.,4.8,0.,4.8,0.,4.8
1989-08-27T06:21:21.280 ,2,0,0.,4.8,0.,4.8,0.,4.8,0.,4.8
1989-08-27T06:21:26.080 ,2,0,0.,4.8,0.,4.8,0.,4.8,0.,4.8
1989-08-27T06:21:30.880 ,2,0,0.,4.8,0.,4.8,0.,4.8,0.,4.8
1989-08-27T06:21:35.680 ,1,0,0.,4.8,0.,4.8,0.,4.8,0.,4.8
1989-08-27T06:21:40.480 ,1,0,0.,4.8,0.,4.8,0.,4.8,0.,4.8
1989-08-27T06:21:45.280 ,1,0,0.,4.8,0.,4.8,0.,4.8,0.,4.8
1989-08-27T06:21:50.080 ,1,0,0.,4.8,0.,4.8,0.,4.8,0.,4.8
1989-08-27T06:21:54.880 ,1,0,0.,4.8,0.,4.8,0.,4.8,0.,4.8
1989-08-27T06:21:59.680 ,1,0,0.,4.8,0.,4.8,0.,4.8,0.,4.8
1989-08-27T06:22:04.480 ,1,0,0.,4.8,0.,4.8,0.,4.8,0.,4.8
1989-08-27T06:22:09.280 ,1,0,0.,4.8,0.,4.8,0.,4.8,0.,4.8
1989-08-27T06:22:14.080 ,1,0,0.,4.8,0.,4.8,0.,4.8,0.,4.8
1989-08-27T06:22:18.880 ,1,0,0.,4.8,0.,4.8,0.,4.8,0.,4.8
1989-08-27T06:22:23.680 ,0,0,0.,4.8,0.,4.8,0.,4.8,0.,4.8
1989-08-27T06:22:28.480 ,0,0,0.,4.8,0.,4.8,0.,4.8,0.,4.8
1989-08-27T06:22:33.280 ,0,0,0.,4.8,0.,4.8,0.,4.8,0.,4.8
1989-08-27T06:22:38.080 ,0,0,0.,4.8,0.,4.8,0.,4.8,0.,4.8
1989-08-27T06:22:42.880 ,0,0,0.,4.8,0.,4.8,0.,4.8,0.,4.8
1989-08-27T06:22:47.680 ,0,0,0.,4.8,0.,4.8,0.,4.8,0.,4.8
1989-08-27T06:22:52.480 ,0,0,0.,4.8,0.,4.8,0.,4.8,0.,4.8
1989-08-27T06:22:57.280 ,0,0,0.,4.8,0.,4.8,0.,4.8,0.,4.8
1989-08-27T06:23:02.080 ,0,0,0.,4.8,0.,4.8,0.,4.8,0.,4.8
1989-08-27T06:23:06.880 ,0,0,0.,4.8,0.,4.8,0.,4.8,0.,4.8
1989-08-27T06:23:11.680 ,0,0,0.,4.8,0.,4.8,0.,4.8,0.,4.8
1989-08-27T06:23:16.480 ,0,0,0.,4.8,0.,4.8,0.,4.8,0.,4.8
1989-08-27T06:23:21.280 ,0,0,0.,4.8,0.,4.8,0.,4.8,0.,4.8
1989-08-27T06:23:26.080 ,0,0,0.,4.8,0.,4.8,0.,4.8,0.,4.8
1989-08-27T06:23:30.880 ,0,0,0.,4.8,0.,4.8,0.,4.8,0.,4.8
1989-08-27T06:23:35.680 ,0,0,0.,4.8,0.,4.8,0.,4.8,0.,4.8
1989-08-27T06:23:40.480 ,0,0,0.,4.8,0.,4.8,0.,4.8,0.,4.8
1989-08-27T06:23:45.280 ,0,0,0.,4.8,0.,4.8,0.,4.8,0.,4.8
1989-08-27T06:23:50.080 ,0,0,0.,4.8,0.,4.8,0.,4.8,0.,4.8
1989-08-27T06:23:54.880 ,0,0,0.,4.8,0.,4.8,0.,4.8,0.,4.8
1989-08-27T06:23:59.680 ,1,0,0.,4.8,0.,4.8,0.,4.8,0.,4.8
1989-08-27T06:24:04.480 ,1,0,0.,4.8,0.,4.8,0.,4.8,0.,4.8
1989-08-27T06:24:09.280 ,1,0,0.,4.8,0.,4.8,0.,4.8,0.,4.8
1989-08-27T06:24:14.080 ,1,0,0.,4.8,0.,4.8,0.,4.8,0.,4.8
1989-08-27T06:24:18.880 ,1,0,0.,4.8,0.,4.8,0.,4.8,0.,4.8
1989-08-27T06:24:23.680 ,1,0,0.,4.8,0.,4.8,0.,4.8,0.,4.8
1989-08-27T06:24:28.480 ,1,0,0.,4.8,0.,4.8,0.,4.8,0.,4.8
1989-08-27T06:24:33.280 ,1,0,0.,4.8,0.,4.8,0.,4.8,0.,4.8
1989-08-27T06:24:38.080 ,1,0,0.,4.8,0.,4.8,0.,4.8,0.,4.8
1989-08-27T06:24:42.880 ,1,0,0.,4.8,0.,4.8,0.,4.8,0.,4.8
1989-08-27T06:24:47.680 ,2,0,0.,4.8,0.,4.8,0.,4.8,0.,4.8
1989-08-27T06:24:52.480 ,2,0,0.,4.8,0.,4.8,0.,4.8,0.,4.8
1989-08-27T06:24:57.280 ,2,0,0.,4.8,0.,4.8,0.,4.8,0.,4.8
1989-08-27T06:25:02.080 ,2,0,0.,4.8,0.,4.8,0.,4.8,0.,4.8
1989-08-27T06:25:06.880 ,2,0,0.,4.8,0.,4.8,0.,4.8,0.,4.8
1989-08-27T06:25:11.680 ,2,0,0.,4.8,0.,4.8,0.,4.8,0.,4.8
1989-08-27T06:25:16.480 ,2,0,0.,4.8,0.,4.8,0.,4.8,0.,4.8
1989-08-27T06:25:21.280 ,2,0,0.,4.8,0.,4.8,0.,4.8,0.,4.8
1989-08-27T06:25:26.080 ,2,0,0.,4.8,0.,4.8,0.,4.8,0.,4.8
1989-08-27T06:25:30.880 ,2,0,0.,4.8,0.,4.8,0.,4.8,0.,4.8
1989-08-27T06:25:35.680 ,3,0,0.,4.8,0.,4.8,0.,4.8,0.,4.8
1989-08-27T06:25:40.480 ,3,0,0.,4.8,0.,4.8,0.,4.8,0.,4.8
1989-08-27T06:25:45.280 ,3,0,0.,4.8,0.,4.8,0.,4.8,0.,4.8
1989-08-27T06:25:50.080 ,3,0,0.,4.8,0.,4.8,0.,4.8,0.,4.8
1989-08-27T06:25:54.880 ,3,0,0.,4.8,0.,4.8,0.,4.8,0.,4.8
1989-08-27T06:25:59.680 ,3,0,0.,4.8,0.,4.8,0.,4.8,0.,4.8
1989-08-27T06:26:04.480 ,3,0,0.,4.8,0.,4.8,0.,4.8,0.,4.8
1989-08-27T06:26:09.280 ,3,0,0.,4.8,0.,4.8,0.,4.8,0.,4.8
1989-08-27T06:26:14.080 ,3,0,0.,4.8,0.,4.8,0.,4.8,0.,4.8
1989-08-27T06:26:18.880 ,3,0,0.,4.8,0.,4.8,0.,4.8,0.,4.8
1989-08-27T06:26:23.680 ,4,0,0.,4.8,0.,4.8,0.,4.8,0.,4.8
1989-08-27T06:26:28.480 ,4,0,0.,4.8,0.,4.8,0.,4.8,0.,4.8
1989-08-27T06:26:33.280 ,4,0,0.,4.8,0.,4.8,0.,4.8,0.,4.8
1989-08-27T06:26:38.080 ,4,0,0.,4.8,0.,4.8,0.,4.8,0.,4.8
1989-08-27T06:26:42.880 ,4,0,0.,4.8,0.,4.8,0.,4.8,0.,4.8
1989-08-27T06:26:47.680 ,4,0,0.,4.8,0.,4.8,0.,4.8,0.,4.8
1989-08-27T06:26:52.480 ,4,0,0.,4.8,0.,4.8,0.,4.8,0.,4.8
1989-08-27T06:26:57.280 ,4,0,0.,4.8,0.,4.8,0.,4.8,0.,4.8
1989-08-27T06:27:02.080 ,4,0,0.,4.8,0.,4.8,0.,4.8,0.,4.8
1989-08-27T06:27:06.880 ,4,0,0.,4.8,0.,4.8,0.,4.8,0.,4.8
1989-08-27T06:27:11.680 ,5,0,0.,4.8,0.,4.8,0.,4.8,0.,4.8
1989-08-27T06:27:16.480 ,5,0,0.,4.8,0.,4.8,0.,4.8,0.,4.8
1989-08-27T06:27:21.280 ,5,0,0.,4.8,0.,4.8,0.,4.8,0.,4.8
1989-08-27T06:27:26.080 ,5,0,0.,4.8,0.,4.8,0.,4.8,0.,4.8
1989-08-27T06:27:30.880 ,5,0,0.,4.8,0.,4.8,0.,4.8,0.,4.8
1989-08-27T06:27:35.680 ,5,0,0.,4.8,0.,4.8,0.,4.8,0.,4.8
1989-08-27T06:27:40.480 ,5,0,0.,4.8,0.,4.8,0.,4.8,0.,4.8
1989-08-27T06:27:45.280 ,5,0,0.,4.8,0.,4.8,0.,4.8,0.,4.8
1989-08-27T06:27:50.080 ,5,0,0.,4.8,0.,4.8,0.,4.8,0.,4.8
1989-08-27T06:27:54.880 ,5,0,0.,4.8,0.,4.8,0.,4.8,0.,4.8
1989-08-27T06:27:59.680 ,6,0,0.,4.8,0.,4.8,0.,4.8,0.,4.8
1989-08-27T06:28:04.480 ,6,0,0.,4.8,0.,4.8,0.,4.8,0.,4.8
1989-08-27T06:28:09.280 ,6,0,0.,4.8,0.,4.8,0.,4.8,0.,4.8
1989-08-27T06:28:14.080 ,6,0,0.,4.8,0.,4.8,0.,4.8,0.,4.8
1989-08-27T06:28:18.880 ,6,0,0.,4.8,0.,4.8,0.,4.8,0.,4.8
1989-08-27T06:28:23.680 ,6,0,0.,4.8,0.,4.8,0.,4.8,0.,4.8
1989-08-27T06:28:28.480 ,6,0,0.,4.8,0.,4.8,0.,4.8,0.,4.8
1989-08-27T06:28:33.280 ,6,0,0.,4.8,0.,4.8,0.,4.8,0.,4.8
1989-08-27T06:28:38.080 ,6,0,0.,4.8,0.,4.8,0.,4.8,0.,4.8
1989-08-27T06:28:42.880 ,6,0,0.,4.8,0.,4.8,0.,4.8,0.,4.8
1989-08-27T06:28:47.680 ,7,0,0.,4.8,0.,4.8,0.,4.8,0.,4.8
1989-08-27T06:28:52.480 ,7,0,0.,4.8,0.,4.8,0.,4.8,0.,4.8
1989-08-27T06:28:57.280 ,7,0,0.,4.8,0.,4.8,0.,4.8,0.,4.8
1989-08-27T06:29:02.080 ,7,0,0.,4.8,0.,4.8,0.,4.8,0.,4.8
1989-08-27T06:29:06.880 ,7,0,0.,4.8,0.,4.8,0.,4.8,0.,4.8
1989-08-27T06:29:11.680 ,7,0,0.,4.8,0.,4.8,0.,4.8,0.,4.8
1989-08-27T06:29:16.480 ,7,0,0.,4.8,0.,4.8,0.,4.8,0.,4.8
1989-08-27T06:29:21.280 ,7,0,0.,4.8,0.,4.8,0.,4.8,0.,4.8
1989-08-27T06:29:26.080 ,7,0,0.,4.8,0.,4.8,0.,4.8,0.,4.8
1989-08-27T06:29:30.880 ,7,0,0.,4.8,0.,4.8,0.,4.8,0.,4.8
1989-08-27T06:29:35.680 ,7,0,0.,4.8,0.,4.8,0.,4.8,0.,4.8
1989-08-27T06:29:40.480 ,7,0,0.,4.8,0.,4.8,0.,4.8,0.,4.8
1989-08-27T06:29:45.280 ,7,0,0.,4.8,0.,4.8,0.,4.8,0.,4.8
1989-08-27T06:29:50.080 ,7,0,0.,4.8,0.,4.8,0.,4.8,0.,4.8
1989-08-27T06:29:54.880 ,7,0,0.,4.8,0.,4.8,0.,4.8,0.,4.8
1989-08-27T06:29:59.680 ,7,0,0.,4.8,0.,4.8,0.,4.8,0.,4.8
1989-08-27T06:30:04.480 ,7,0,0.,4.8,0.,4.8,0.,4.8,0.,4.8
1989-08-27T06:30:09.280 ,7,0,0.,4.8,0.,4.8,0.,4.8,0.,4.8
1989-08-27T06:30:14.080 ,7,0,0.,4.8,0.,4.8,0.,4.8,0.,4.8
1989-08-27T06:30:18.880 ,7,0,0.,4.8,0.,4.8,0.,4.8,0.,4.8
1989-08-27T06:30:23.680 ,6,0,0.,4.8,0.,4.8,0.,4.8,0.,4.8
1989-08-27T06:30:28.480 ,6,0,0.,4.8,0.,4.8,0.,4.8,0.,4.8
1989-08-27T06:30:33.280 ,6,0,0.,4.8,0.,4.8,0.,4.8,0.,4.8
1989-08-27T06:30:38.080 ,6,0,0.,4.8,0.,4.8,0.,4.8,0.,4.8
1989-08-27T06:30:42.880 ,6,0,0.,4.8,0.,4.8,0.,4.8,0.,4.8
1989-08-27T06:30:47.680 ,6,0,0.,4.8,0.,4.8,0.,4.8,0.,4.8
1989-08-27T06:30:52.480 ,6,0,0.,4.8,0.,4.8,0.,4.8,0.,4.8
1989-08-27T06:30:57.280 ,6,0,0.,4.8,0.,4.8,0.,4.8,0.,4.8
1989-08-27T06:31:02.080 ,6,0,0.,4.8,0.,4.8,0.,4.8,0.,4.8
1989-08-27T06:31:06.880 ,6,0,0.,4.8,0.,4.8,0.,4.8,0.,4.8
1989-08-27T06:31:11.680 ,5,0,0.,4.8,0.,4.8,0.,4.8,0.,4.8
1989-08-27T06:31:16.480 ,5,0,0.,4.8,0.,4.8,0.,4.8,0.,4.8
1989-08-27T06:31:21.280 ,5,0,0.,4.8,0.,4.8,0.,4.8,0.,4.8
1989-08-27T06:31:26.080 ,5,0,0.,4.8,0.,4.8,0.,4.8,0.,4.8
1989-08-27T06:31:30.880 ,5,0,0.,4.8,0.,4.8,0.,4.8,0.,4.8
1989-08-27T06:31:35.680 ,5,0,0.,4.8,0.,4.8,0.,4.8,0.,4.8
1989-08-27T06:31:40.480 ,5,0,0.,4.8,0.,4.8,0.,4.8,0.,4.8
1989-08-27T06:31:45.280 ,5,0,0.,4.8,0.,4.8,0.,4.8,0.,4.8
1989-08-27T06:31:50.080 ,5,0,0.,4.8,0.,4.8,0.,4.8,0.,4.8
1989-08-27T06:31:54.880 ,5,0,0.,4.8,0.,4.8,0.,4.8,0.,4.8
1989-08-27T06:31:59.680 ,4,0,0.,4.8,0.,4.8,0.,4.8,0.,4.8
1989-08-27T06:32:04.480 ,4,0,0.,4.8,0.,4.8,0.,4.8,0.,4.8
1989-08-27T06:32:09.280 ,4,0,0.,4.8,0.,4.8,0.,4.8,0.,4.8
1989-08-27T06:32:14.080 ,4,0,0.,4.8,0.,4.8,0.,4.8,0.,4.8
1989-08-27T06:32:18.880 ,4,0,0.,4.8,0.,4.8,0.,4.8,0.,4.8
1989-08-27T06:32:23.680 ,4,0,0.,4.8,0.,4.8,0.,4.8,0.,4.8
1989-08-27T06:32:28.480 ,4,0,0.,4.8,0.,4.8,0.,4.8,0.,4.8
1989-08-27T06:32:33.280 ,4,0,0.,4.8,0.,4.8,0.,4.8,0.,4.8
1989-08-27T06:32:38.080 ,4,0,0.,4.8,0.,4.8,0.,4.8,0.,4.8
1989-08-27T06:32:42.880 ,4,0,0.,4.8,0.,4.8,0.,4.8,0.,4.8
1989-08-27T06:32:47.680 ,3,0,0.,4.8,0.,4.8,0.,4.8,0.,4.8
1989-08-27T06:32:52.480 ,3,0,0.,4.8,0.,4.8,0.,4.8,0.,4.8
1989-08-27T06:32:57.280 ,3,0,0.,4.8,0.,4.8,0.,4.8,0.,4.8
1989-08-27T06:33:02.080 ,3,0,0.,4.8,0.,4.8,0.,4.8,0.,4.8
1989-08-27T06:33:06.880 ,3,0,0.,4.8,0.,4.8,0.,4.8,0.,4.8
1989-08-27T06:33:11.680 ,3,0,0.,4.8,0.,4.8,0.,4.8,0.,4.8
1989-08-27T06:33:16.480 ,3,0,0.,4.8,0.,4.8,0.,4.8,0.,4.8